Location: ??????
(36.0418°N, 43.6351°E)
Time: 05:50:33
(UTC+00:00)

Sich 1 - Pass Details

Date: 07 March 2021
Orbit: 593 x 626 km, 82.5° (Epoch: 20 April)

Event Time Altitude Azimuth Distance (km) Brightness Sun altitude
Rises 02:41:29 0° 338° (NNW) 2,907 6.3 -10.2°
Reaches altitude 10° 02:44:04 10° 324° (NW) 1,991 5.3 -9.6°
Maximum altitude 02:47:33 23° 271° (W) 1,308 4.1 -8.9°
Drops below altitude 10° 02:51:00 10° 219° (SW) 1,965 5.3 -8.2°
Sets 02:53:33 0° 205° (SSW) 2,858 6.2 -7.7°
